Regional Weather Roundup
Issued by NWS

Home | Current Version | Previous Version | Graphics & Text | Print | Product List | Glossary On
Versions: 1 2 3 4 5 6 7 8 9 10 11 12 13 14 15 16 17 18 19 20 21 22 23 24 25 26 27 28 29 30 31 32 33 34 35 36 37 38 39 40 41 42 43 44 45 46 47 48 49 50
000
ASUS43 KOAX 300002
RWRNE

WEATHER ROUNDUP FOR NEBRASKA
NATIONAL WEATHER SERVICE OMAHA NE
700 PM CDT SUN MAR 29 2015

NOTES: SATELLITE DATA IS BEING USED TO AUGMENT CLOUD COVER ABOVE
       12000 FEET.
       "FAIR" INDICATES FEW OR NO CLOUDS BELOW 12,000 FEET WITH NO
       SIGNIFICANT WEATHER AND/OR OBSTRUCTIONS TO VISIBILITY.

  * THESE STATIONS DO NOT REPORT WEATHER SUCH AS RAIN...SNOW OR FOG.

NEZ001>004-019>022-054>056-300100-
NEBRASKA PANHANDLE

CITY           SKY/WX    TMP DP  RH WIND       PRES   REMARKS
SCOTTSBLUFF    MOSUNNY   65  22  19 E3        30.10F
6HR MIN TEMP:  59; 6HR MAX TEMP:  66;

ALLIANCE       MOSUNNY   61  24  24 NW5       30.11S
6HR MIN TEMP:  56; 6HR MAX TEMP:  63;

CHADRON        MOSUNNY   63  24  22 W10       30.08F
6HR MIN TEMP:  57; 6HR MAX TEMP:  65;

KIMBALL        SUNNY     60  21  21 S3        30.13S
SIDNEY         SUNNY     60  23  24 VRB3      30.15S
6HR MIN TEMP:  57; 6HR MAX TEMP:  63;

$$

NEZ057>060-069>072-079>082-300100-
SOUTHWEST NEBRASKA

CITY           SKY/WX    TMP DP  RH WIND       PRES   REMARKS
NORTH PLATTE   SUNNY     62  18  18 N8        30.13F
6HR MIN TEMP:  58; 6HR MAX TEMP:  64;

IMPERIAL         N/A     63  17  17 VRB6      30.14F
6HR MIN TEMP:  59; 6HR MAX TEMP:  65;

MCCOOK         SUNNY     65  16  15 N8        30.14R
6HR MIN TEMP:  63; 6HR MAX TEMP:  68;

$$

NEZ005>010-023>029-035>040-094-300100-
NORTH CENTRAL NEBRASKA

CITY           SKY/WX    TMP DP  RH WIND       PRES   REMARKS
VALENTINE      SUNNY     60  20  21 NW9       30.10F
6HR MIN TEMP:  54; 6HR MAX TEMP:  62;

AINSWORTH      SUNNY     60  16  18 NW12      30.10S
BROKEN BOW     SUNNY     61  17  18 NW8       30.12S
6HR MIN TEMP:  60; 6HR MAX TEMP:  64;

O`NEILL        CLEAR     59  18  20 NW9       30.10R
ORD              N/A     60  11  14 MISG      30.11R
6HR MIN TEMP:  57; 6HR MAX TEMP:  63;

$$

NEZ041-046>049-061>064-073>077-083>087-300100-
SOUTH CENTRAL NEBRASKA

CITY           SKY/WX    TMP DP  RH WIND       PRES   REMARKS
GRAND ISLAND   CLEAR     60  15  17 N15       30.12S
6HR MIN TEMP:  60; 6HR MAX TEMP:  64;

AURORA         CLEAR     60  17  19 N13       30.12R
HASTINGS       CLEAR     61  14  16 N13       30.12R
6HR MIN TEMP:  61; 6HR MAX TEMP:  64;

HEBRON         CLEAR     62  16  16 N8        30.12R
KEARNEY *      SUNNY     61  12  15 N14       30.13S
$$

NEZ011>018-030>034-042>045-300100-
NORTHEAST NEBRASKA

CITY           SKY/WX    TMP DP  RH WIND       PRES   REMARKS
NORFOLK        CLEAR     60  20  21 NW15      30.07R
6HR MIN TEMP:  53; 6HR MAX TEMP:  62;

ALBION         CLEAR     59  16  18 NW14G20   30.10R
BLAIR          CLEAR     61  19  20 NW17G26   30.06R
COLUMBUS *     CLEAR     59  21  23 NW13      30.11S
$$

NEZ050>053-065>068-078-088>093-300100-
SOUTHEAST NEBRASKA

CITY           SKY/WX    TMP DP  RH WIND       PRES   REMARKS
LINCOLN        CLEAR     62  21  20 N14       30.09R
6HR MIN TEMP:  56; 6HR MAX TEMP:  65;

OMAHA EPPLEY   PTCLDY    60  22  23 NW17      30.05R
6HR MIN TEMP:  52; 6HR MAX TEMP:  63;

BEATRICE       CLEAR     60  29  30 N13       30.10R
FALLS CITY     CLEAR     60  29  30 NW12      30.07R
6HR MIN TEMP:  60; 6HR MAX TEMP:  66;

NEBRASKA CITY  CLEAR     59  22  23 N15       30.07R
PLATTSMOUTH    CLEAR     60  19  20 NW17G26   30.06R
$$

NEZ044-045-051>053-067-300100-
OMAHA AREA

CITY           SKY/WX    TMP DP  RH WIND       PRES   REMARKS
OMAHA EPPLEY   PTCLDY    60  22  23 NW17      30.05R
6HR MIN TEMP:  52; 6HR MAX TEMP:  63;

BLAIR          CLEAR     61  19  20 NW17G26   30.06R
OFFUTT AFB     CLEAR     61  24  24 NW14G21   30.05R
PLATTSMOUTH    CLEAR     60  19  20 NW17G26   30.06R
WAHOO          FAIR      60  17  18 N13       30.08R
$$


USA.gov is the U.S. government's official web portal to all federal, state and local government web resources and services.